Time,TemperatureF,DewpointF,PressureIn,WindDirection,WindDirectionDegrees,WindSpeedMPH,WindSpeedGustMPH,Humidity,HourlyPrecipIn,Conditions,Clouds,dailyrainin,SoftwareType,DateUTC
2013-03-16 00:03:00,45.0,-99.9,29.80,WSW,250,8.0,11.0,-999,-99.99,,,-99.99,,2013-03-16 04:03:00,
2013-03-16 00:13:00,46.0,-99.9,29.80,WSW,239,8.0,11.0,-999,-99.99,,,-99.99,,2013-03-16 04:13:00,
2013-03-16 00:23:00,45.0,-99.9,29.80,WSW,239,8.0,10.0,-999,-99.99,,,-99.99,,2013-03-16 04:23:00,
2013-03-16 00:33:00,46.0,-99.9,29.80,WSW,251,8.0,11.0,-999,-99.99,,,-99.99,,2013-03-16 04:33:00,
2013-03-16 00:43:00,46.0,-99.9,29.80,WSW,252,7.0,9.0,-999,-99.99,,,-99.99,,2013-03-16 04:43:00,
2013-03-16 00:53:00,45.0,-99.9,29.80,West,265,6.0,7.0,-999,-99.99,,,-99.99,,2013-03-16 04:53:00,
2013-03-16 01:03:00,45.0,-99.9,29.80,West,268,6.0,7.0,-999,-99.99,,,-99.99,,2013-03-16 05:03:00,
2013-03-16 01:12:00,45.0,-99.9,29.80,West,260,4.0,6.0,-999,-99.99,,,-99.99,,2013-03-16 05:12:00,
2013-03-16 01:22:00,44.0,-99.9,29.80,WSW,238,6.0,9.0,-999,-99.99,,,-99.99,,2013-03-16 05:22:00,
2013-03-16 01:32:00,44.0,-99.9,29.80,SW,235,8.0,12.0,-999,-99.99,,,-99.99,,2013-03-16 05:32:00,
2013-03-16 01:42:00,44.0,-99.9,29.79,WSW,239,7.0,10.0,-999,-99.99,,,-99.99,,2013-03-16 05:42:00,
2013-03-16 01:53:00,44.0,-99.9,29.79,WSW,242,7.0,11.0,-999,-99.99,,,-99.99,,2013-03-16 05:53:00,
2013-03-16 02:02:00,45.0,-99.9,29.79,WSW,240,8.0,11.0,-999,-99.99,,,-99.99,,2013-03-16 06:02:00,
2013-03-16 02:12:00,44.0,-99.9,29.79,West,259,5.0,8.0,-999,-99.99,,,-99.99,,2013-03-16 06:12:00,
2013-03-16 02:22:00,44.0,-99.9,29.80,NW,323,7.0,8.0,-999,-99.99,,,-99.99,,2013-03-16 06:22:00,
2013-03-16 02:32:00,43.0,-99.9,29.80,WNW,291,5.0,6.0,-999,-99.99,,,-99.99,,2013-03-16 06:32:00,
2013-03-16 02:42:00,43.0,-99.9,29.80,WNW,292,6.0,7.0,-999,-99.99,,,-99.99,,2013-03-16 06:42:00,
2013-03-16 02:52:00,43.0,-99.9,29.80,NW,307,3.0,4.0,-999,-99.99,,,-99.99,,2013-03-16 06:52:00,
2013-03-16 03:02:00,43.0,-99.9,29.80,WNW,293,4.0,4.0,-999,-99.99,,,-99.99,,2013-03-16 07:02:00,
2013-03-16 03:12:00,43.0,-99.9,29.80,West,266,3.0,3.0,-999,-99.99,,,-99.99,,2013-03-16 07:12:00,
2013-03-16 03:22:00,42.0,-99.9,29.80,NW,313,2.0,2.0,-999,-99.99,,,-99.99,,2013-03-16 07:22:00,
2013-03-16 03:32:00,42.0,-99.9,29.80,WNW,298,3.0,3.0,-999,-99.99,,,-99.99,,2013-03-16 07:32:00,
2013-03-16 03:42:00,42.0,-99.9,29.80,NNW,348,2.0,2.0,-999,-99.99,,,-99.99,,2013-03-16 07:42:00,
2013-03-16 03:53:00,42.0,-99.9,29.80,North,-999,-999.0,-999.0,-999,-99.99,,,-99.99,,2013-03-16 07:53:00,
2013-03-16 04:03:00,42.0,-99.9,29.80,NNW,331,1.0,2.0,-999,-99.99,,,-99.99,,2013-03-16 08:03:00,
2013-03-16 04:12:00,42.0,-99.9,29.80,NW,318,0.0,1.0,-999,-99.99,,,-99.99,,2013-03-16 08:12:00,
2013-03-16 04:23:00,42.0,-99.9,29.80,SSW,200,0.0,1.0,-999,-99.99,,,-99.99,,2013-03-16 08:23:00,
2013-03-16 04:33:00,42.0,-99.9,29.80,WNW,302,0.0,2.0,-999,-99.99,,,-99.99,,2013-03-16 08:33:00,
2013-03-16 04:42:00,42.0,-99.9,29.80,West,280,1.0,2.0,-999,-99.99,,,-99.99,,2013-03-16 08:42:00,
2013-03-16 04:52:00,42.0,-99.9,29.80,WNW,300,1.0,2.0,-999,-99.99,,,-99.99,,2013-03-16 08:52:00,
2013-03-16 05:02:00,42.0,-99.9,29.80,NW,325,2.0,3.0,-999,-99.99,,,-99.99,,2013-03-16 09:02:00,
2013-03-16 05:12:00,42.0,-99.9,29.80,NNW,339,2.0,3.0,-999,-99.99,,,-99.99,,2013-03-16 09:12:00,
2013-03-16 05:22:00,42.0,-99.9,29.80,WNW,302,2.0,2.0,-999,-99.99,,,-99.99,,2013-03-16 09:22:00,
2013-03-16 05:33:00,42.0,-99.9,29.80,West,279,1.0,1.0,-999,-99.99,,,-99.99,,2013-03-16 09:33:00,
2013-03-16 05:43:00,43.0,-99.9,29.80,NNW,334,3.0,3.0,-999,-99.99,,,-99.99,,2013-03-16 09:43:00,
2013-03-16 05:53:00,43.0,-99.9,29.80,North,11,6.0,6.0,-999,-99.99,,,-99.99,,2013-03-16 09:53:00,
2013-03-16 06:03:00,43.0,-99.9,29.80,NNE,31,2.0,3.0,-999,-99.99,,,-99.99,,2013-03-16 10:03:00,
2013-03-16 06:12:00,43.0,-99.9,29.80,North,-999,-999.0,-999.0,-999,-99.99,,,-99.99,,2013-03-16 10:12:00,
2013-03-16 06:23:00,43.0,-99.9,29.81,North,-999,-999.0,-999.0,-999,-99.99,,,-99.99,,2013-03-16 10:23:00,
2013-03-16 06:32:00,43.0,-99.9,29.81,North,-999,-999.0,-999.0,-999,-99.99,,,-99.99,,2013-03-16 10:32:00,
2013-03-16 06:42:00,43.0,-99.9,29.81,NNE,16,2.0,2.0,-999,-99.99,,,-99.99,,2013-03-16 10:42:00,
2013-03-16 06:53:00,43.0,-99.9,29.81,ENE,66,1.0,1.0,-999,-99.99,,,-99.99,,2013-03-16 10:53:00,
2013-03-16 07:03:00,43.0,-99.9,29.81,NE,44,2.0,2.0,-999,-99.99,,,-99.99,,2013-03-16 11:03:00,
2013-03-16 07:12:00,43.0,-99.9,29.81,ENE,62,2.0,2.0,-999,-99.99,,,-99.99,,2013-03-16 11:12:00,
2013-03-16 07:22:00,43.0,-99.9,29.81,ENE,66,2.0,3.0,-999,-99.99,,,-99.99,,2013-03-16 11:22:00,
2013-03-16 07:33:00,43.0,-99.9,29.82,ENE,66,1.0,1.0,-999,-99.99,,,-99.99,,2013-03-16 11:33:00,
2013-03-16 07:43:00,43.0,-99.9,29.83,ENE,66,1.0,1.0,-999,-99.99,,,-99.99,,2013-03-16 11:43:00,
2013-03-16 07:53:00,43.0,-99.9,29.83,ENE,66,0.0,1.0,-999,-99.99,,,-99.99,,2013-03-16 11:53:00,
2013-03-16 08:02:00,43.0,-99.9,29.84,North,-999,-999.0,-999.0,-999,-99.99,,,-99.99,,2013-03-16 12:02:00,
2013-03-16 08:12:00,43.0,-99.9,29.84,ENE,66,0.0,1.0,-999,-99.99,,,-99.99,,2013-03-16 12:12:00,
2013-03-16 08:23:00,43.0,-99.9,29.83,ENE,68,4.0,4.0,-999,-99.99,,,-99.99,,2013-03-16 12:23:00,
2013-03-16 08:32:00,43.0,-99.9,29.83,East,88,4.0,5.0,-999,-99.99,,,-99.99,,2013-03-16 12:32:00,
2013-03-16 08:43:00,43.0,-99.9,29.83,East,79,5.0,6.0,-999,-99.99,,,-99.99,,2013-03-16 12:43:00,
2013-03-16 08:53:00,44.0,-99.9,29.83,East,79,10.0,12.0,-999,-99.99,,,-99.99,,2013-03-16 12:53:00,
2013-03-16 09:02:00,44.0,-99.9,29.83,East,93,13.0,18.0,-999,-99.99,,,-99.99,,2013-03-16 13:02:00,
2013-03-16 09:12:00,43.0,-99.9,29.82,East,94,14.0,16.0,-999,-99.99,,,-99.99,,2013-03-16 13:12:00,
2013-03-16 09:23:00,43.0,-99.9,29.83,ESE,107,13.0,18.0,-999,-99.99,,,-99.99,,2013-03-16 13:23:00,
2013-03-16 09:32:00,43.0,-99.9,29.83,East,100,14.0,19.0,-999,-99.99,,,-99.99,,2013-03-16 13:32:00,
2013-03-16 09:43:00,43.0,-99.9,29.83,East,101,15.0,18.0,-999,-99.99,,,-99.99,,2013-03-16 13:43:00,
2013-03-16 09:53:00,43.0,-99.9,29.83,ESE,103,13.0,15.0,-999,-99.99,,,-99.99,,2013-03-16 13:53:00,
2013-03-16 10:03:00,43.0,-99.9,29.83,ESE,106,13.0,17.0,-999,-99.99,,,-99.99,,2013-03-16 14:03:00,
2013-03-16 10:12:00,43.0,-99.9,29.83,ESE,104,13.0,17.0,-999,-99.99,,,-99.99,,2013-03-16 14:12:00,
2013-03-16 10:22:00,43.0,-99.9,29.83,ESE,108,12.0,16.0,-999,-99.99,,,-99.99,,2013-03-16 14:22:00,
2013-03-16 10:32:00,43.0,-99.9,29.83,ESE,110,12.0,15.0,-999,-99.99,,,-99.99,,2013-03-16 14:32:00,
2013-03-16 10:42:00,43.0,-99.9,29.83,ESE,113,13.0,17.0,-999,-99.99,,,-99.99,,2013-03-16 14:42:00,
2013-03-16 10:53:00,43.0,-99.9,29.83,ESE,109,13.0,18.0,-999,-99.99,,,-99.99,,2013-03-16 14:53:00,
2013-03-16 11:03:00,43.0,-99.9,29.83,ESE,102,14.0,17.0,-999,-99.99,,,-99.99,,2013-03-16 15:03:00,
2013-03-16 11:13:00,43.0,-99.9,29.83,ESE,109,13.0,18.0,-999,-99.99,,,-99.99,,2013-03-16 15:13:00,
2013-03-16 11:23:00,43.0,-99.9,29.82,ESE,121,11.0,16.0,-999,-99.99,,,-99.99,,2013-03-16 15:23:00,
2013-03-16 11:33:00,43.0,-99.9,29.81,East,87,9.0,18.0,-999,-99.99,,,-99.99,,2013-03-16 15:33:00,
2013-03-16 11:44:00,43.0,-99.9,29.81,ESE,117,14.0,18.0,-999,-99.99,,,-99.99,,2013-03-16 15:44:00,
2013-03-16 11:53:00,43.0,-99.9,29.80,ESE,112,13.0,16.0,-999,-99.99,,,-99.99,,2013-03-16 15:53:00,
2013-03-16 12:03:00,43.0,-99.9,29.80,ESE,112,12.0,17.0,-999,-99.99,,,-99.99,,2013-03-16 16:03:00,
2013-03-16 12:13:00,43.0,-99.9,29.80,ESE,111,15.0,19.0,-999,-99.99,,,-99.99,,2013-03-16 16:13:00,
2013-03-16 12:23:00,43.0,-99.9,29.79,ESE,117,15.0,20.0,-999,-99.99,,,-99.99,,2013-03-16 16:23:00,
2013-03-16 12:33:00,43.0,-99.9,29.79,ESE,112,13.0,17.0,-999,-99.99,,,-99.99,,2013-03-16 16:33:00,
2013-03-16 12:43:00,43.0,-99.9,29.79,ESE,107,13.0,20.0,-999,-99.99,,,-99.99,,2013-03-16 16:43:00,
2013-03-16 12:53:00,44.0,-99.9,29.79,ESE,114,12.0,16.0,-999,-99.99,,,-99.99,,2013-03-16 16:53:00,
2013-03-16 13:03:00,44.0,-99.9,29.79,ESE,114,10.0,13.0,-999,-99.99,,,-99.99,,2013-03-16 17:03:00,
2013-03-16 13:13:00,44.0,-99.9,29.78,ESE,109,15.0,19.0,-999,-99.99,,,-99.99,,2013-03-16 17:13:00,
2013-03-16 13:23:00,44.0,-99.9,29.75,ESE,120,16.0,21.0,-999,-99.99,,,-99.99,,2013-03-16 17:23:00,
2013-03-16 13:33:00,44.0,-99.9,29.76,ESE,109,14.0,19.0,-999,-99.99,,,-99.99,,2013-03-16 17:33:00,
2013-03-16 13:43:00,44.0,-99.9,29.76,ESE,109,13.0,20.0,-999,-99.99,,,-99.99,,2013-03-16 17:43:00,
2013-03-16 13:53:00,44.0,-99.9,29.76,East,93,15.0,18.0,-999,-99.99,,,-99.99,,2013-03-16 17:53:00,
2013-03-16 14:03:00,44.0,-99.9,29.75,ESE,113,13.0,17.0,-999,-99.99,,,-99.99,,2013-03-16 18:03:00,
2013-03-16 14:13:00,44.0,-99.9,29.74,ESE,123,11.0,17.0,-999,-99.99,,,-99.99,,2013-03-16 18:13:00,
2013-03-16 14:23:00,44.0,-99.9,29.74,ESE,107,11.0,17.0,-999,-99.99,,,-99.99,,2013-03-16 18:23:00,
2013-03-16 14:33:00,44.0,-99.9,29.73,ESE,120,13.0,17.0,-999,-99.99,,,-99.99,,2013-03-16 18:33:00,
2013-03-16 14:43:00,43.0,-99.9,29.73,East,101,13.0,17.0,-999,-99.99,,,-99.99,,2013-03-16 18:43:00,
2013-03-16 14:53:00,44.0,-99.9,29.74,ESE,109,10.0,14.0,-999,-99.99,,,-99.99,,2013-03-16 18:53:00,
2013-03-16 15:02:00,43.0,-99.9,29.74,ESE,111,13.0,16.0,-999,-99.99,,,-99.99,,2013-03-16 19:02:00,
2013-03-16 15:12:00,43.0,-99.9,29.73,ESE,120,10.0,13.0,-999,-99.99,,,-99.99,,2013-03-16 19:12:00,
2013-03-16 15:23:00,43.0,-99.9,29.72,ESE,109,13.0,16.0,-999,-99.99,,,-99.99,,2013-03-16 19:23:00,
2013-03-16 15:33:00,43.0,-99.9,29.71,ESE,110,14.0,18.0,-999,-99.99,,,-99.99,,2013-03-16 19:33:00,
2013-03-16 15:42:00,43.0,-99.9,29.70,ESE,112,16.0,19.0,-999,-99.99,,,-99.99,,2013-03-16 19:42:00,
2013-03-16 15:53:00,44.0,-99.9,29.70,ESE,111,13.0,17.0,-999,-99.99,,,-99.99,,2013-03-16 19:53:00,
2013-03-16 16:03:00,44.0,-99.9,29.70,ESE,102,13.0,17.0,-999,-99.99,,,-99.99,,2013-03-16 20:03:00,
2013-03-16 16:13:00,43.0,-99.9,29.70,East,99,15.0,18.0,-999,-99.99,,,-99.99,,2013-03-16 20:13:00,
2013-03-16 16:22:00,44.0,-99.9,29.70,East,97,13.0,20.0,-999,-99.99,,,-99.99,,2013-03-16 20:22:00,
2013-03-16 16:33:00,43.0,-99.9,29.69,East,95,17.0,23.0,-999,-99.99,,,-99.99,,2013-03-16 20:33:00,
2013-03-16 16:43:00,44.0,-99.9,29.70,East,93,13.0,18.0,-999,-99.99,,,-99.99,,2013-03-16 20:43:00,
2013-03-16 16:53:00,43.0,-99.9,29.69,East,99,16.0,19.0,-999,-99.99,,,-99.99,,2013-03-16 20:53:00,
2013-03-16 17:02:00,43.0,-99.9,29.70,East,100,17.0,21.0,-999,-99.99,,,-99.99,,2013-03-16 21:02:00,
2013-03-16 17:12:00,43.0,-99.9,29.71,East,94,15.0,19.0,-999,-99.99,,,-99.99,,2013-03-16 21:12:00,
2013-03-16 17:23:00,43.0,-99.9,29.71,ENE,72,19.0,24.0,-999,-99.99,,,-99.99,,2013-03-16 21:23:00,
2013-03-16 17:33:00,42.0,-99.9,29.69,East,87,18.0,21.0,-999,-99.99,,,-99.99,,2013-03-16 21:33:00,
2013-03-16 17:43:00,42.0,-99.9,29.69,East,84,18.0,21.0,-999,-99.99,,,-99.99,,2013-03-16 21:43:00,
2013-03-16 17:53:00,42.0,-99.9,29.70,ENE,75,21.0,25.0,-999,-99.99,,,-99.99,,2013-03-16 21:53:00,
2013-03-16 18:03:00,42.0,-99.9,29.70,ENE,71,22.0,26.0,-999,-99.99,,,-99.99,,2013-03-16 22:03:00,
2013-03-16 18:13:00,42.0,-99.9,29.70,ENE,70,23.0,25.0,-999,-99.99,,,-99.99,,2013-03-16 22:13:00,
2013-03-16 18:23:00,42.0,-99.9,29.70,ENE,72,23.0,26.0,-999,-99.99,,,-99.99,,2013-03-16 22:23:00,
2013-03-16 18:33:00,42.0,-99.9,29.71,ENE,70,23.0,26.0,-999,-99.99,,,-99.99,,2013-03-16 22:33:00,
2013-03-16 18:43:00,42.0,-99.9,29.70,ENE,75,25.0,29.0,-999,-99.99,,,-99.99,,2013-03-16 22:43:00,
2013-03-16 18:53:00,42.0,-99.9,29.69,East,83,21.0,26.0,-999,-99.99,,,-99.99,,2013-03-16 22:53:00,
2013-03-16 19:03:00,42.0,-99.9,29.70,ENE,78,20.0,23.0,-999,-99.99,,,-99.99,,2013-03-16 23:03:00,
2013-03-16 19:13:00,41.0,-99.9,29.71,ENE,66,19.0,22.0,-999,-99.99,,,-99.99,,2013-03-16 23:13:00,
2013-03-16 19:23:00,41.0,-99.9,29.72,ENE,65,19.0,23.0,-999,-99.99,,,-99.99,,2013-03-16 23:23:00,
2013-03-16 19:33:00,41.0,-99.9,29.73,ENE,59,20.0,23.0,-999,-99.99,,,-99.99,,2013-03-16 23:33:00,
2013-03-16 19:43:00,41.0,-99.9,29.73,ENE,58,19.0,22.0,-999,-99.99,,,-99.99,,2013-03-16 23:43:00,
2013-03-16 19:53:00,42.0,-99.9,29.73,ENE,67,21.0,23.0,-999,-99.99,,,-99.99,,2013-03-16 23:53:00,
2013-03-16 20:02:00,42.0,-99.9,29.75,ENE,60,19.0,22.0,-999,-99.99,,,-99.99,,2013-03-17 00:02:00,
2013-03-16 20:13:00,42.0,-99.9,29.75,ENE,63,20.0,23.0,-999,-99.99,,,-99.99,,2013-03-17 00:13:00,
2013-03-16 20:23:00,42.0,-99.9,29.76,ENE,63,17.0,20.0,-999,-99.99,,,-99.99,,2013-03-17 00:23:00,
2013-03-16 20:33:00,42.0,-99.9,29.78,ENE,57,18.0,21.0,-999,-99.99,,,-99.99,,2013-03-17 00:33:00,
2013-03-16 20:43:00,42.0,-99.9,29.78,ENE,65,20.0,22.0,-999,-99.99,,,-99.99,,2013-03-17 00:43:00,
2013-03-16 20:53:00,42.0,-99.9,29.78,ENE,59,17.0,20.0,-999,-99.99,,,-99.99,,2013-03-17 00:53:00,
2013-03-16 21:03:00,42.0,-99.9,29.79,ENE,64,16.0,18.0,-999,-99.99,,,-99.99,,2013-03-17 01:03:00,
2013-03-16 21:12:00,41.0,-99.9,29.79,ENE,60,19.0,21.0,-999,-99.99,,,-99.99,,2013-03-17 01:12:00,
2013-03-16 21:23:00,41.0,-99.9,29.80,NE,56,18.0,21.0,-999,-99.99,,,-99.99,,2013-03-17 01:23:00,
2013-03-16 21:33:00,41.0,-99.9,29.80,ENE,61,19.0,22.0,-999,-99.99,,,-99.99,,2013-03-17 01:33:00,
2013-03-16 21:43:00,40.0,-99.9,29.80,ENE,66,18.0,21.0,-999,-99.99,,,-99.99,,2013-03-17 01:43:00,
2013-03-16 21:53:00,40.0,-99.9,29.82,ENE,64,18.0,19.0,-999,-99.99,,,-99.99,,2013-03-17 01:53:00,
2013-03-16 22:03:00,40.0,-99.9,29.83,NE,51,16.0,18.0,-999,-99.99,,,-99.99,,2013-03-17 02:03:00,
2013-03-16 22:13:00,40.0,-99.9,29.82,NE,54,17.0,18.0,-999,-99.99,,,-99.99,,2013-03-17 02:13:00,
2013-03-16 22:23:00,40.0,-99.9,29.83,NE,44,15.0,17.0,-999,-99.99,,,-99.99,,2013-03-17 02:23:00,
2013-03-16 22:33:00,40.0,-99.9,29.84,NE,45,15.0,17.0,-999,-99.99,,,-99.99,,2013-03-17 02:33:00,
2013-03-16 22:43:00,40.0,-99.9,29.85,NE,40,15.0,18.0,-999,-99.99,,,-99.99,,2013-03-17 02:43:00,
2013-03-16 22:53:00,40.0,-99.9,29.86,NE,35,12.0,14.0,-999,-99.99,,,-99.99,,2013-03-17 02:53:00,
2013-03-16 23:03:00,40.0,-99.9,29.87,NNE,25,15.0,16.0,-999,-99.99,,,-99.99,,2013-03-17 03:03:00,
2013-03-16 23:12:00,40.0,-99.9,29.87,NNE,22,16.0,18.0,-999,-99.99,,,-99.99,,2013-03-17 03:12:00,
2013-03-16 23:23:00,40.0,-99.9,29.88,NNE,17,16.0,19.0,-999,-99.99,,,-99.99,,2013-03-17 03:23:00,
2013-03-16 23:34:00,40.0,-99.9,29.89,NNE,17,18.0,20.0,-999,-99.99,,,-99.99,,2013-03-17 03:34:00,
2013-03-16 23:43:00,40.0,-99.9,29.89,NNE,22,17.0,20.0,-999,-99.99,,,-99.99,,2013-03-17 03:43:00,
2013-03-16 23:53:00,39.0,-99.9,29.89,North,11,15.0,17.0,-999,-99.99,,,-99.99,,2013-03-17 03:53:00,